Total_Precipitation_Accumulation
0.03 0.06 0.10 0.10 0.09 0.07 0.05 0.04 0.04 0.05 0.06 0.07 0.11 0.14 0.11 0.15 0.26 0.23 0.18 0.24 0.43 0.81 0.85 0.78 0.86 0.85 0.72
0.04 0.06 0.11 0.14 0.16 0.17 0.17 0.20 0.21 0.25 0.17 0.14 0.12 0.12 0.16 0.18 0.16 0.18 0.22 0.25 0.22 0.28 0.52 0.60 0.63 0.62 0.65
0.04 0.02 0.04 0.09 0.16 0.20 0.21 0.22 0.22 0.29 0.24 0.28 0.29 0.21 0.16 0.15 0.17 0.17 0.19 0.22 0.27 0.30 0.39 0.66 0.82 0.82 0.81
0.06 0.05 0.06 0.08 0.13 0.22 0.28 0.28 0.23 0.19 0.24 0.28 0.28 0.24 0.21 0.18 0.20 0.22 0.27 0.25 0.24 0.27 0.35 0.41 0.50 0.64 0.71
0.11 0.11 0.14 0.16 0.19 0.25 0.31 0.32 0.29 0.23 0.20 0.21 0.22 0.23 0.30 0.30 0.23 0.21 0.19 0.18 0.19 0.20 0.22 0.29 0.39 0.49 0.52
0.14 0.17 0.23 0.28 0.29 0.31 0.36 0.40 0.36 0.27 0.27 0.29 0.29 0.29 0.28 0.29 0.38 0.31 0.25 0.21 0.19 0.16 0.15 0.15 0.16 0.18 0.21
0.10 0.10 0.08 0.10 0.13 0.17 0.22 0.23 0.26 0.30 0.32 0.31 0.28 0.27 0.23 0.21 0.20 0.17 0.14 0.13 0.12 0.11 0.08 0.06 0.06 0.07 0.10
0.03 0.03 0.02 0.03 0.04 0.08 0.10 0.15 0.19 0.19 0.13 0.12 0.11 0.09 0.05 0.04 0.02 0.01 0.01 0.01 0.02 0.02 0.02 0.01 0.01 0.01 0.01
0.03 0.03 0.02 0.01 0.01 0.00 0.01 0.02 0.05 0.03 0.00 0.01 0.01 0.01 0.01 0.01 0.00 0.00 0.00 0.00 0.00 0.00 0.00 0.00 0.00 0.00 0.00
0.00 0.00 0.00 0.00 0.00 0.00 0.00 0.00 0.00 0.00 0.00 0.00 0.00 0.00 0.00 0.00 0.00 0.00 0.00 0.00 0.00 0.00 0.00 0.00 0.00 0.00 0.00
0.00 0.00 0.00 0.00 0.00 0.00 0.00 0.00 0.00 0.00 0.00 0.00 0.00 0.00 0.00 0.00 0.00 0.00 0.00 0.00 0.00 0.00 0.00 0.00 0.00 0.00 0.00
0.00 0.00 0.00 0.00 0.00 0.00 0.00 0.00 0.00 0.00 0.00 0.00 0.00 0.00 0.00 0.00 0.00 0.00 0.00 0.00 0.00 0.00 0.00 0.00 0.00 0.00 0.00
0.00 0.00 0.00 0.00 0.00 0.00 0.00 0.00 0.00 0.00 0.00 0.00 0.00 0.00 0.00 0.00 0.00 0.00 0.00 0.00 0.00 0.00 0.00 0.00 0.00 0.00 0.00
0.00 0.00 0.00 0.00 0.00 0.00 0.00 0.00 0.00 0.00 0.00 0.00 0.00 0.00 0.00 0.00 0.00 0.00 0.00 0.00 0.00 0.00 0.00 0.00 0.00 0.00 0.00
0.00 0.00 0.00 0.00 0.00 0.00 0.00 0.00 0.00 0.00 0.00 0.00 0.00 0.00 0.00 0.00 0.00 0.00 0.00 0.00 0.00 0.00 0.00 0.00 0.00 0.00 0.00
0.00 0.00 0.00 0.00 0.00 0.00 0.00 0.00 0.00 0.00 0.00 0.00 0.00 0.00 0.00 0.00 0.00 0.00 0.00 0.00 0.00 0.00 0.00 0.00 0.00 0.00 0.00
0.00 0.00 0.00 0.00 0.00 0.00 0.00 0.00 0.00 0.00 0.00 0.00 0.00 0.01 0.01 0.00 0.00 0.00 0.00 0.00 0.00 0.00 0.00 0.00 0.00 0.00 0.00